Regional Weather Roundup
Issued by NWS

Home | Current Version | Previous Version | Text Only | Print | Product List | Glossary On
Versions: 1 2 3 4 5 6 7 8 9 10 11 12 13 14 15 16 17 18 19 20 21 22 23 24 25 26 27 28 29 30 31 32 33 34 35 36 37 38 39 40 41 42 43 44 45 46 47 48 49 50
000
ASUS44 KLIX 191810
RWRLA
LOUISIANA WEATHER ROUNDUP
NATIONAL WEATHER SERVICE NEW ORLEANS LA
100 PM CDT SAT APR 19 2014

NOTE: "FAIR" INDICATES FEW OR NO CLOUDS BELOW 12,000 FEET WITH NO
      SIGNIFICANT WEATHER AND/OR OBSTRUCTIONS TO VISIBILITY.
      SKY/WX - SKY CONDITION AND SIGNIFICANT WEATHER.
      TMP - AIR TEMPERATURE.    DP   - DEWPOINT TEMPERATURE.
      RH  - RELATIVE HUMIDITY.  PRES - PRESSURE.
      HX  - HEAT INDEX.         WCI  - WIND CHILL INDEX.

*  THESE STATIONS ARE NOT NWS OR FAA STATIONS AND ARE NOT UNDER
   NWS QUALITY CONTROL.

LAZ040-048-061>063-065-066-069-191900-
SOUTHEAST LOUISIANA

CITY           SKY/WX    TMP DP  RH WIND       PRES   REMARKS
N.O. AUDUBON     N/A     73  54  50 MISG        N/A
6HR MIN TEMP:  58; 6HR MAX TEMP:  73;

N.O. INTL ARPT MOSUNNY   72  52  49 N8        30.15F
6HR MIN TEMP:  57; 6HR MAX TEMP:  72;

N.O. LAKEFRONT SUNNY     67  57  70 W8        30.16F
6HR MIN TEMP:  59; 6HR MAX TEMP:  67;

N.O. DOWNTOWN* FAIR      72  50  46 NW5       30.16F
6HR MIN TEMP:  57; 6HR MAX TEMP:  72;

SLIDELL        SUNNY     75  49  39 NE8G16    30.13F
6HR MIN TEMP:  53; 6HR MAX TEMP:  76;

BATON ROUGE    SUNNY     76  51  41 CALM      30.17F
6HR MIN TEMP:  52; 6HR MAX TEMP:  77;

BOOTHVILLE     SUNNY     65  52  62 N9        30.16S
6HR MIN TEMP:  59; 6HR MAX TEMP:  66;

BELLE CHASSE   MOSUNNY   74  51  44 VRB3      30.14F
6HR MIN TEMP:  52; 6HR MAX TEMP:  74;

BOGALUSA*        N/A     76  49  38 N10G17    30.15F
6HR MIN TEMP:  52; 6HR MAX TEMP:  76;

GALLIANO*      CLEAR     73  54  51 CALM      30.15F
6HR MIN TEMP:  54; 6HR MAX TEMP:  73;

NEW ROADS*     FAIR      74  55  51 N7        30.18F
6HR MIN TEMP:  52; 6HR MAX TEMP:  74;

GONZALES*      FAIR      74  53  46 N3        30.16F
6HR MIN TEMP:  51; 6HR MAX TEMP:  74;

HAMMOND*       SUNNY     77  46  33 N8        30.16F
HOUMA*         SUNNY     73  52  46 N5        30.16F
PORT FOURCHON* CLEAR     70  54  56 N8        30.18S

$$

LAZ041-044-053-054-191900-
SOUTHWEST LOUISIANA

CITY           SKY/WX    TMP DP  RH WIND       PRES   REMARKS
LAKE CHARLES   SUNNY     74  54  49 VRB3      30.19F
6HR MIN TEMP:  57; 6HR MAX TEMP:  74;

LAFAYETTE      SUNNY     75  51  43 VRB5      30.18F
6HR MIN TEMP:  56; 6HR MAX TEMP:  76;

PATTERSON      SUNNY     73  54  49 NE8       30.20F
6HR MIN TEMP:  55; 6HR MAX TEMP:  73;

SALT POINT       N/A     73  60  63 VRB3      30.16F
6HR MIN TEMP:  58; 6HR MAX TEMP:  73;

NEW IBERIA     SUNNY     76  51  41 NE7       30.18F
6HR MIN TEMP:  57; 6HR MAX TEMP:  76;

CHENAULT AIRPK SUNNY     75  54  46 CALM      30.20F

$$

LAZ027-028-191900-
CENTRAL LOUISIANA

CITY           SKY/WX    TMP DP  RH WIND       PRES   REMARKS
FORT POLK      MOSUNNY   74  54  49 E3        30.19F
6HR MIN TEMP:  54; 6HR MAX TEMP:  74;

ALEXANDRIA INT SUNNY     74  53  48 S3        30.18F
6HR MIN TEMP:  53; 6HR MAX TEMP:  75;

ALEXANDRIA     MOSUNNY   77  52  41 VRB5      30.19F
6HR MIN TEMP:  50; 6HR MAX TEMP:  78;


$$

LAZ001-002-191900-
NORTHWEST LOUISIANA

CITY           SKY/WX    TMP DP  RH WIND       PRES   REMARKS
SHREVEPORT     MOSUNNY   75  52  44 CALM      30.19F
6HR MIN TEMP:  52; 6HR MAX TEMP:  76;

BARKSDALE AFB  MOSUNNY   73  54  50 S8        30.19F
6HR MIN TEMP:  51; 6HR MAX TEMP:  74;

DTN SHREVEPORT MOSUNNY   72  54  53 S3        30.19F
6HR MIN TEMP:  50; 6HR MAX TEMP:  74;


$$

LAZ014-016-191900-
NORTHEAST LOUISIANA

CITY           SKY/WX    TMP DP  RH WIND       PRES   REMARKS
MONROE         SUNNY     73  50  44 CALM      30.20F
6HR MIN TEMP:  49; 6HR MAX TEMP:  75;

TALLULAH       SUNNY     74  53  48 MISG      30.19F
6HR MIN TEMP:  55; 6HR MAX TEMP:  74;


$$




USA.gov is the U.S. government's official web portal to all federal, state and local government web resources and services.